Location: Pedholt
(56.0260°N, 10.2097°E)
Time: 01:54:41
(UTC+00:00)

A-11 Canister half - Pass Details

Date: 03 August 2021
Orbit: 1514 x 1685 km, 47.2° (Epoch: 16 September)

Event Time Altitude Azimuth Distance (km) Brightness Sun altitude
Rises 18:08:07 0° 253° (WSW) 4,822 12.6 8.5°
Reaches altitude 10° 18:11:17 10° 249° (WSW) 3,859 12.0 8.1°
Maximum altitude 18:20:44 52° 177° (S) 1,993 9.6 6.8°
Drops below altitude 10° 18:30:24 10° 105° (ESE) 3,948 10.5 5.6°
Sets 18:33:41 0° 101° (E) 4,940 11.0 5.1°
